User: anonymous
Location: Terra Rouge Observatory
(46.0000°N, 62.7500°W)
Time: 19:52:12
(UTC-03:00)
Language:

NOSS 3-1 (A) - Orbit

View from above orbital plane
View from above orbital plane
View from above satellite
View from above satellite

Ground track
Ground track

The orbit data is extracted from the following two-line orbital elements,

1 26905U 01040A   14107.99640367 0.00000000  00000-0  00000-0 0    07
2 26905  63.4260 103.0369 0270000 357.5525   2.4475 13.40686677    08
Epoch (UTC): 17 April 2014 23:54:49
Eccentricity: 0.0270000
inclination: 63.4260°
perigee height: 904 km
apogee height: 1309 km
right ascension of ascending node: 103.0369°
argument of perigee: 357.5525°
revolutions per day: 13.40686677
mean anomaly at epoch: 2.4475°
orbit number at epoch: 0

The dashed part of the orbit path shows where the satellite is in the earth's shadow,  

DLR